When you browse on this site, cookies collect data to enhance your experience and personalize the content and advertising you see.
Visit our Privacy Policy to learn more. By continuing to use the site, you agree to this use of cookies and data.
  • In Hungary
  • List of Countries
  • For 7 days
  • Water Temperature
  • Weather Map
  • News
  • Weather Widgets
  • user-avatar
    Login

    Hourly Weather Kobiela

    Today, 18 September, Wednesday

    Time Temperature Precipitation Wind Pressure Humidity
    00:00 +5°C° 0.3 mm 6 mps 740 mmHg 85%
    01:00 +5°C° 0 mm 6 mps 741 mmHg 84%
    02:00 +5°C° 0.3 mm 6 mps 741 mmHg 85%
    03:00 +7°C° 0.3 mm 6 mps 741 mmHg 86%
    04:00 +7°C° 0.3 mm 6 mps 741 mmHg 86%
    05:00 +7°C° 1.8 mm 6 mps 742 mmHg 87%
    06:00 +8°C° 1.8 mm 6 mps 744 mmHg 87%
    07:00 +8°C° 0 mm 6 mps 745 mmHg 87%
    08:00 +8°C° 0.7 mm 7 mps 746 mmHg 85%
    09:00 +9°C° 0.7 mm 7 mps 746 mmHg 84%
    10:00 +9°C° 0.7 mm 7 mps 747 mmHg 82%
    11:00 +10°C° 0.3 mm 7 mps 747 mmHg 77%
    12:00 +11°C° 0.3 mm 8 mps 748 mmHg 72%
    13:00 +12°C° 0.3 mm 8 mps 748 mmHg 66%
    14:00 +11°C° 0.1 mm 8 mps 749 mmHg 67%
    15:00 +11°C° 0.1 mm 7 mps 749 mmHg 68%
    16:00 +10°C° 0.1 mm 7 mps 749 mmHg 69%
    17:00 +9°C° 0 mm 6 mps 750 mmHg 74%
    18:00 +8°C° 0 mm 5 mps 750 mmHg 79%
    19:00 +7°C° 0 mm 4 mps 750 mmHg 83%
    20:00 +6°C° 0 mm 4 mps 751 mmHg 84%
    21:00 +7°C° 0 mm 3 mps 751 mmHg 86%
    22:00 +7°C° 0 mm 3 mps 751 mmHg 87%
    23:00 +6°C° 0 mm 4 mps 751 mmHg 88%

    Tomorrow, 19 September, Thursday

    Time Temperature Precipitation Wind Pressure Humidity
    00:00 +6°C° 0 mm 4 mps 752 mmHg 88%
    01:00 +6°C° 0 mm 4 mps 752 mmHg 89%
    02:00 +5°C° 0 mm 4 mps 752 mmHg 90%
    03:00 +5°C° 0 mm 3 mps 752 mmHg 91%
    04:00 +5°C° 0 mm 3 mps 752 mmHg 92%
    05:00 +7°C° 0 mm 3 mps 753 mmHg 89%
    06:00 +8°C° 0 mm 3 mps 753 mmHg 85%
    07:00 +9°C° 0 mm 3 mps 753 mmHg 82%
    08:00 +10°C° 0.3 mm 4 mps 754 mmHg 76%
    09:00 +10°C° 0.3 mm 5 mps 754 mmHg 70%
    10:00 +13°C° 0.3 mm 5 mps 754 mmHg 64%
    11:00 +13°C° 0.2 mm 5 mps 754 mmHg 63%
    12:00 +13°C° 0.2 mm 6 mps 754 mmHg 61%
    13:00 +13°C° 0.2 mm 6 mps 755 mmHg 59%
    14:00 +13°C° 0.2 mm 6 mps 755 mmHg 63%
    15:00 +11°C° 0.2 mm 6 mps 755 mmHg 66%
    16:00 +10°C° 0.2 mm 6 mps 755 mmHg 70%
    17:00 +9°C° 0.1 mm 5 mps 755 mmHg 76%
    18:00 +8°C° 0.1 mm 4 mps 756 mmHg 83%
    19:00 +6°C° 0.1 mm 4 mps 756 mmHg 90%
    20:00 +6°C° 0 mm 4 mps 756 mmHg 89%
    21:00 +7°C° 0 mm 3 mps 756 mmHg 88%
    22:00 +5°C° 0 mm 3 mps 757 mmHg 87%
    23:00 +5°C° 0 mm 3 mps 757 mmHg 87%

    Day after tomorrow, 20 September, Friday

    Time Temperature Precipitation Wind Pressure Humidity
    00:00 +5°C° 0 mm 3 mps 757 mmHg 88%
    01:00 +4°C° 0 mm 3 mps 757 mmHg 88%
    02:00 +5°C° 0 mm 2 mps 757 mmHg 89%
    03:00 +5°C° 0 mm 2 mps 757 mmHg 89%
    04:00 +5°C° 0 mm 2 mps 757 mmHg 89%
    05:00 +6°C° 0 mm 2 mps 757 mmHg 87%
    06:00 +6°C° 0 mm 2 mps 757 mmHg 84%
    07:00 +7°C° 0 mm 2 mps 758 mmHg 81%
    08:00 +9°C° 0.1 mm 3 mps 758 mmHg 75%
    09:00 +10°C° 0.1 mm 3 mps 758 mmHg 69%
    10:00 +12°C° 0.1 mm 3 mps 758 mmHg 63%
    11:00 +12°C° 0.2 mm 3 mps 758 mmHg 62%
    12:00 +13°C° 0.2 mm 4 mps 758 mmHg 60%
    13:00 +13°C° 0.2 mm 4 mps 758 mmHg 59%
    14:00 +13°C° 0.1 mm 3 mps 758 mmHg 59%
    15:00 +12°C° 0.1 mm 3 mps 758 mmHg 59%
    16:00 +12°C° 0.1 mm 3 mps 758 mmHg 60%
    17:00 +12°C° 0 mm 2 mps 758 mmHg 63%
    18:00 +9°C° 0 mm 2 mps 757 mmHg 66%
    19:00 +9°C° 0 mm 1 mps 757 mmHg 69%
    20:00 +8°C° 0 mm 1 mps 757 mmHg 70%
    21:00 +7°C° 0 mm 2 mps 757 mmHg 70%
    22:00 +7°C° 0 mm 2 mps 757 mmHg 71%
    23:00 +7°C° 0 mm 3 mps 757 mmHg 77%

    21 September, Saturday

    Time Temperature Precipitation Wind Pressure Humidity
    00:00 +7°C° 0 mm 3 mps 757 mmHg 84%
    01:00 +7°C° 0 mm 3 mps 757 mmHg 91%
    02:00 +6°C° 0 mm 4 mps 756 mmHg 91%
    03:00 +7°C° 0 mm 4 mps 756 mmHg 92%
    04:00 +7°C° 0 mm 4 mps 756 mmHg 93%
    05:00 +8°C° 0 mm 5 mps 756 mmHg 93%
    06:00 +8°C° 0 mm 5 mps 756 mmHg 92%
    07:00 +9°C° 0 mm 5 mps 756 mmHg 92%
    08:00 +10°C° 0 mm 5 mps 756 mmHg 89%
    09:00 +12°C° 0 mm 5 mps 756 mmHg 85%
    10:00 +13°C° 0 mm 5 mps 756 mmHg 82%
    11:00 +14°C° 0 mm 5 mps 756 mmHg 78%
    12:00 +15°C° 0 mm 5 mps 756 mmHg 74%
    13:00 +16°C° 0 mm 5 mps 756 mmHg 70%
    14:00 +16°C° 0 mm 5 mps 755 mmHg 71%
    15:00 +17°C° 0 mm 4 mps 755 mmHg 72%
    16:00 +17°C° 0 mm 4 mps 755 mmHg 72%
    17:00 +14°C° 0 mm 3 mps 755 mmHg 78%
    18:00 +12°C° 0 mm 3 mps 755 mmHg 85%
    19:00 +12°C° 0 mm 2 mps 755 mmHg 91%
    20:00 +12°C° 0 mm 2 mps 755 mmHg 92%
    21:00 +10°C° 0 mm 2 mps 754 mmHg 93%
    22:00 +10°C° 0 mm 2 mps 754 mmHg 94%
    23:00 +10°C° 0 mm 3 mps 754 mmHg 94%

    22 September, Sunday

    Time Temperature Precipitation Wind Pressure Humidity
    00:00 +9°C° 0 mm 3 mps 754 mmHg 95%
    01:00 +9°C° 0 mm 3 mps 754 mmHg 95%
    02:00 +9°C° 0 mm 2 mps 754 mmHg 95%
    03:00 +9°C° 0 mm 2 mps 754 mmHg 95%
    04:00 +9°C° 0 mm 2 mps 754 mmHg 95%
    05:00 +9°C° 0 mm 2 mps 754 mmHg 93%
    06:00 +10°C° 0 mm 2 mps 754 mmHg 91%
    07:00 +10°C° 0 mm 2 mps 754 mmHg 89%
    08:00 +13°C° 0 mm 1 mps 754 mmHg 83%
    09:00 +15°C° 0 mm 1 mps 754 mmHg 76%
    10:00 +18°C° 0 mm 1 mps 754 mmHg 69%
    11:00 +19°C° 0 mm 1 mps 754 mmHg 65%
    12:00 +20°C° 0 mm 1 mps 753 mmHg 60%
    13:00 +21°C° 0 mm 1 mps 753 mmHg 56%
    14:00 +21°C° 0 mm 1 mps 753 mmHg 57%
    15:00 +21°C° 0 mm 1 mps 752 mmHg 59%
    16:00 +21°C° 0 mm 1 mps 752 mmHg 60%
    17:00 +18°C° 0 mm 2 mps 751 mmHg 66%
    18:00 +16°C° 0 mm 2 mps 751 mmHg 71%
    19:00 +14°C° 0 mm 2 mps 751 mmHg 76%
    20:00 +13°C° 0 mm 2 mps 751 mmHg 76%
    21:00 +12°C° 0 mm 3 mps 750 mmHg 76%
    22:00 +11°C° 0 mm 3 mps 750 mmHg 75%
    23:00 +11°C° 0 mm 3 mps 750 mmHg 77%

    23 September, Monday

    Time Temperature Precipitation Wind Pressure Humidity
    00:00 +10°C° 0 mm 3 mps 749 mmHg 78%
    01:00 +10°C° 0 mm 3 mps 749 mmHg 80%
    02:00 +9°C° 0 mm 3 mps 748 mmHg 81%
    03:00 +9°C° 0 mm 3 mps 748 mmHg 82%
    04:00 +9°C° 0 mm 3 mps 747 mmHg 83%
    05:00 +9°C° 0 mm 3 mps 746 mmHg 81%
    06:00 +10°C° 0 mm 3 mps 746 mmHg 78%
    07:00 +10°C° 0 mm 3 mps 746 mmHg 76%
    08:00 +13°C° 0 mm 2 mps 746 mmHg 69%
    09:00 +15°C° 0 mm 2 mps 745 mmHg 62%
    10:00 +18°C° 0 mm 1 mps 745 mmHg 56%
    11:00 +19°C° 0 mm 1 mps 745 mmHg 53%
    12:00 +20°C° 0 mm 1 mps 744 mmHg 50%
    13:00 +21°C° 0 mm 1 mps 744 mmHg 47%
    14:00 +20°C° 0 mm 1 mps 744 mmHg 51%
    15:00 +20°C° 0 mm 1 mps 744 mmHg 55%
    16:00 +20°C° 0 mm 1 mps 744 mmHg 58%
    17:00 +18°C° 0 mm 1 mps 744 mmHg 64%
    18:00 +15°C° 0 mm 1 mps 744 mmHg 70%
    19:00 +13°C° 0 mm 1 mps 744 mmHg 76%
    20:00 +12°C° 0 mm 1 mps 744 mmHg 79%
    21:00 +12°C° 0 mm 1 mps 744 mmHg 83%
    22:00 +11°C° 0 mm 1 mps 744 mmHg 86%
    23:00 +10°C° 0 mm 2 mps 744 mmHg 88%
    Show more